RMF322 WMKD-WMKK

Flight info

Callsign RMF322
Flight time 0h 36m
Altitude 16000
Route DCT ADNUT DCT KK892 DCT MOTKA DCT
Aircraft C130/M-SDE2E3FGRY/H

Departure

Time 2026-05-04 13:13
Airport Kuantan Airport (WMKD)

Arrival

Time 2026-05-04 13:49
Airport Kuala Lumpur International Airport (WMKK)
Time Latitude Longitude Altitude Speed Heading
2026-05-04 12:57 3.76640 103.20628 63 ft 0 kts 287°
2026-05-04 13:01 3.76639 103.20632 56 ft 2 kts 284°
2026-05-04 13:02 3.76639 103.20643 59 ft 2 kts 249°
2026-05-04 13:02 3.76646 103.20650 56 ft 0 kts 211°
2026-05-04 13:04 3.76644 103.20649 63 ft 3 kts 210°
2026-05-04 13:04 3.76600 103.20649 63 ft 10 kts 169°
2026-05-04 13:04 3.76518 103.20664 60 ft 13 kts 179°
2026-05-04 13:05 3.76437 103.20665 63 ft 10 kts 175°
2026-05-04 13:05 3.76383 103.20665 63 ft 6 kts 186°
2026-05-04 13:05 3.76312 103.20669 55 ft 7 kts 135°
2026-05-04 13:05 3.76296 103.20746 63 ft 16 kts 91°
2026-05-04 13:06 3.76312 103.20826 57 ft 6 kts 25°
2026-05-04 13:06 3.76319 103.20828 61 ft 0 kts
2026-05-04 13:12 3.76411 103.20831 63 ft 43 kts
2026-05-04 13:12 3.76935 103.20861 63 ft 106 kts
2026-05-04 13:13 3.77778 103.20911 354 ft 129 kts
2026-05-04 13:13 3.78739 103.20925 700 ft 154 kts 357°
2026-05-04 13:13 3.79902 103.20898 1066 ft 176 kts 360°
2026-05-04 13:13 3.81113 103.20907 1908 ft 173 kts
2026-05-04 13:14 3.82308 103.20807 2703 ft 175 kts 338°
2026-05-04 13:14 3.83137 103.19981 3453 ft 175 kts 290°
2026-05-04 13:14 3.83124 103.18796 4225 ft 174 kts 246°
2026-05-04 13:14 3.82294 103.17951 4967 ft 173 kts 204°
2026-05-04 13:15 3.81199 103.17459 5691 ft 172 kts 204°
2026-05-04 13:15 3.80098 103.16987 6400 ft 172 kts 202°
2026-05-04 13:15 3.78987 103.16537 7064 ft 172 kts 201°
2026-05-04 13:15 3.77845 103.16167 7706 ft 173 kts 186°
2026-05-04 13:16 3.76683 103.15904 8359 ft 174 kts 201°
2026-05-04 13:16 3.75584 103.15382 9032 ft 175 kts 208°
2026-05-04 13:16 3.74552 103.14727 9700 ft 176 kts 215°
2026-05-04 13:16 3.73580 103.13968 10311 ft 177 kts 220°
2026-05-04 13:17 3.72666 103.13138 10907 ft 178 kts 223°
2026-05-04 13:17 3.71797 103.12254 11520 ft 178 kts 226°
2026-05-04 13:17 3.70962 103.11334 12136 ft 179 kts 228°
2026-05-04 13:17 3.70158 103.10381 12756 ft 179 kts 229°
2026-05-04 13:18 3.69376 103.09409 13385 ft 179 kts 231°
2026-05-04 13:18 3.68608 103.08418 13968 ft 179 kts 231°
2026-05-04 13:18 3.67866 103.07431 14487 ft 180 kts 232°
2026-05-04 13:18 3.67122 103.06423 15012 ft 180 kts 232°
2026-05-04 13:19 3.66386 103.05409 15523 ft 180 kts 232°
2026-05-04 13:19 3.65899 103.04735 15852 ft 180 kts 232°
2026-05-04 13:19 3.64922 103.03363 16511 ft 181 kts 232°
2026-05-04 13:19 3.64200 103.02348 17000 ft 181 kts 232°
2026-05-04 13:20 3.63441 103.01275 17155 ft 201 kts 233°
2026-05-04 13:20 3.62613 103.00093 16869 ft 212 kts 233°
2026-05-04 13:20 3.61755 102.98869 16659 ft 217 kts 233°
2026-05-04 13:20 3.60875 102.97615 16418 ft 222 kts 233°
2026-05-04 13:21 3.59978 102.96336 16210 ft 225 kts 233°
2026-05-04 13:21 3.59086 102.95065 16025 ft 227 kts 233°
2026-05-04 13:21 3.58170 102.93761 15991 ft 234 kts 233°
2026-05-04 13:21 3.57204 102.92384 16029 ft 248 kts 233°
2026-05-04 13:22 3.56533 102.91429 16051 ft 257 kts 233°
2026-05-04 13:22 3.55121 102.89417 16086 ft 272 kts 234°
2026-05-04 13:22 3.54393 102.88379 16096 ft 278 kts 234°
2026-05-04 13:22 3.53260 102.86760 16001 ft 291 kts 234°
2026-05-04 13:23 3.52068 102.85056 15934 ft 300 kts 234°
2026-05-04 13:23 3.50466 102.82768 15946 ft 306 kts 234°
2026-05-04 13:23 3.49635 102.81581 15951 ft 308 kts 234°
2026-05-04 13:23 3.48418 102.79841 15953 ft 311 kts 234°
2026-05-04 13:24 3.47167 102.78056 15959 ft 314 kts 234°
2026-05-04 13:24 3.45908 102.76259 15963 ft 316 kts 234°
2026-05-04 13:24 3.44645 102.74457 15963 ft 317 kts 234°
2026-05-04 13:25 3.42097 102.70821 15963 ft 320 kts 233°
2026-05-04 13:25 3.40754 102.69037 15971 ft 320 kts 231°
2026-05-04 13:25 3.39390 102.67305 15962 ft 321 kts 230°
2026-05-04 13:25 3.37977 102.65562 15956 ft 321 kts 227°
2026-05-04 13:26 3.36421 102.63961 15956 ft 321 kts 223°
2026-05-04 13:26 3.34794 102.62438 15954 ft 320 kts 220°
2026-05-04 13:26 3.33122 102.60958 15958 ft 320 kts 219°
2026-05-04 13:26 3.31433 102.59507 15958 ft 321 kts 220°
2026-05-04 13:27 3.29730 102.58060 15957 ft 320 kts 218°
2026-05-04 13:27 3.28015 102.56632 15955 ft 320 kts 219°
2026-05-04 13:27 3.26321 102.55216 15955 ft 321 kts 219°
2026-05-04 13:27 3.24609 102.53785 15953 ft 321 kts 219°
2026-05-04 13:28 3.22895 102.52354 15953 ft 321 kts 219°
2026-05-04 13:28 3.21178 102.50922 15958 ft 320 kts 219°
2026-05-04 13:28 3.19480 102.49504 15952 ft 315 kts 219°
2026-05-04 13:28 3.17812 102.48108 15947 ft 310 kts 219°
2026-05-04 13:29 3.16164 102.46726 15944 ft 307 kts 219°
2026-05-04 13:29 3.14529 102.45358 15940 ft 304 kts 218°
2026-05-04 13:29 3.12908 102.44004 15936 ft 302 kts 218°
2026-05-04 13:29 3.11296 102.42661 15941 ft 300 kts 218°
2026-05-04 13:30 3.09711 102.41343 15939 ft 299 kts 218°
2026-05-04 13:30 3.08111 102.40011 15938 ft 298 kts 218°
2026-05-04 13:30 3.06508 102.38678 15937 ft 300 kts 218°
2026-05-04 13:30 3.04896 102.37334 15938 ft 302 kts 218°
2026-05-04 13:31 3.03274 102.35980 15940 ft 304 kts 218°
2026-05-04 13:31 3.01646 102.34620 15941 ft 305 kts 218°
2026-05-04 13:31 3.00044 102.33282 15931 ft 297 kts 218°
2026-05-04 13:31 2.98467 102.31963 15583 ft 295 kts 218°
2026-05-04 13:32 2.96889 102.30652 15207 ft 295 kts 218°
2026-05-04 13:32 2.95309 102.29345 14848 ft 294 kts 218°
2026-05-04 13:32 2.93731 102.28034 14431 ft 295 kts 218°
2026-05-04 13:32 2.92153 102.26719 14041 ft 295 kts 219°
2026-05-04 13:33 2.90573 102.25400 13645 ft 295 kts 219°
2026-05-04 13:33 2.88998 102.24084 13210 ft 295 kts 219°
2026-05-04 13:33 2.87426 102.22772 12793 ft 293 kts 219°
2026-05-04 13:33 2.85862 102.21464 12378 ft 292 kts 219°
2026-05-04 13:34 2.84309 102.20167 11986 ft 290 kts 219°
2026-05-04 13:34 2.82764 102.18876 11584 ft 287 kts 219°
2026-05-04 13:34 2.81253 102.17614 11187 ft 279 kts 219°
2026-05-04 13:34 2.79785 102.16385 10790 ft 271 kts 219°
2026-05-04 13:35 2.78368 102.15201 10395 ft 265 kts 219°
2026-05-04 13:35 2.75593 102.12885 9572 ft 254 kts 219°
2026-05-04 13:35 2.74247 102.11760 9124 ft 250 kts 220°
2026-05-04 13:36 2.72920 102.10652 8693 ft 250 kts 220°
2026-05-04 13:36 2.71556 102.09504 8297 ft 261 kts 220°
2026-05-04 13:36 2.70147 102.08322 7928 ft 267 kts 220°
2026-05-04 13:36 2.68706 102.07117 7574 ft 271 kts 220°
2026-05-04 13:37 2.67289 102.05936 7209 ft 262 kts 220°
2026-05-04 13:37 2.65912 102.04788 6839 ft 253 kts 220°
2026-05-04 13:37 2.64572 102.03672 6463 ft 252 kts 220°
2026-05-04 13:37 2.63205 102.02532 6101 ft 258 kts 220°
2026-05-04 13:38 2.61814 102.01377 5737 ft 261 kts 220°
2026-05-04 13:38 2.60426 102.00224 5491 ft 257 kts 220°
2026-05-04 13:38 2.59059 101.99076 5142 ft 258 kts 221°
2026-05-04 13:38 2.57673 101.97921 4682 ft 260 kts 220°
2026-05-04 13:39 2.56285 101.96785 4530 ft 250 kts 220°
2026-05-04 13:39 2.54998 101.95734 4524 ft 235 kts 221°
2026-05-04 13:39 2.53771 101.94734 4534 ft 220 kts 220°
2026-05-04 13:39 2.52621 101.93814 4556 ft 202 kts 220°
2026-05-04 13:40 2.51565 101.92963 4547 ft 183 kts 220°
2026-05-04 13:40 2.50605 101.92190 4531 ft 176 kts 220°
2026-05-04 13:40 2.49649 101.91425 4527 ft 176 kts 219°
2026-05-04 13:40 2.48816 101.90559 4504 ft 173 kts 246°
2026-05-04 13:41 2.48772 101.89404 4492 ft 169 kts 292°
2026-05-04 13:41 2.49573 101.88589 4493 ft 168 kts 337°
2026-05-04 13:41 2.50693 101.88192 4509 ft 173 kts 337°
2026-05-04 13:42 2.52746 101.87113 4503 ft 164 kts 327°
2026-05-04 13:42 2.53686 101.86504 4490 ft 158 kts 326°
2026-05-04 13:42 2.54571 101.85903 4473 ft 154 kts 325°
2026-05-04 13:42 2.55472 101.85282 4359 ft 160 kts 324°
2026-05-04 13:43 2.56395 101.84641 4152 ft 156 kts 323°
2026-05-04 13:43 2.57255 101.84061 3970 ft 143 kts 325°
2026-05-04 13:43 2.58104 101.83492 3793 ft 152 kts 326°
2026-05-04 13:43 2.58998 101.82867 3613 ft 161 kts 326°
2026-05-04 13:44 2.59908 101.82273 3394 ft 154 kts 326°
2026-05-04 13:44 2.60766 101.81696 3200 ft 143 kts 325°
2026-05-04 13:44 2.61561 101.81163 3012 ft 132 kts 325°
2026-05-04 13:44 2.62325 101.80640 2854 ft 135 kts 323°
2026-05-04 13:45 2.63112 101.80111 2696 ft 140 kts 328°
2026-05-04 13:45 2.63973 101.79528 2506 ft 153 kts 324°
2026-05-04 13:45 2.64848 101.78934 2303 ft 150 kts 324°
2026-05-04 13:45 2.65716 101.78352 2102 ft 149 kts 327°
2026-05-04 13:46 2.66561 101.77788 1915 ft 144 kts 326°
2026-05-04 13:46 2.67385 101.77239 1732 ft 141 kts 327°
2026-05-04 13:46 2.68206 101.76679 1568 ft 145 kts 324°
2026-05-04 13:46 2.69022 101.76100 1362 ft 142 kts 327°
2026-05-04 13:47 2.69837 101.75578 1181 ft 142 kts 328°
2026-05-04 13:47 2.70583 101.75093 1020 ft 140 kts 327°
2026-05-04 13:47 2.71390 101.74555 866 ft 138 kts 327°
2026-05-04 13:47 2.72166 101.74011 645 ft 132 kts 322°
2026-05-04 13:48 2.72920 101.73466 450 ft 136 kts 326°
2026-05-04 13:48 2.73692 101.72963 316 ft 131 kts 324°
2026-05-04 13:48 2.74423 101.72463 143 ft 122 kts 330°
2026-05-04 13:48 2.75103 101.72033 73 ft 107 kts 323°
2026-05-04 13:49 2.75640 101.71667 75 ft 76 kts 326°
2026-05-04 13:49 2.75981 101.71442 67 ft 51 kts 324°
2026-05-04 13:49 2.76290 101.71237 67 ft 55 kts 328°
2026-05-04 13:49 2.76544 101.70995 66 ft 45 kts 298°
2026-05-04 13:50 2.76581 101.70881 67 ft 0 kts 253°
2026-05-04 13:50 2.76562 101.70855 58 ft 11 kts 215°
2026-05-04 13:50 2.76455 101.70892 62 ft 18 kts 144°
2026-05-04 13:51 2.76344 101.70966 62 ft 15 kts 148°
2026-05-04 13:51 2.76310 101.70988 63 ft 0 kts 146°
2026-05-04 13:53 2.76306 101.70991 61 ft 6 kts 146°
2026-05-04 13:54 2.75993 101.71204 71 ft 43 kts 146°
2026-05-04 13:54 2.75860 101.71177 67 ft 23 kts 236°
2026-05-04 13:54 2.75702 101.70983 65 ft 8 kts 144°
2026-05-04 13:55 2.75660 101.71011 70 ft 0 kts 146°